Aspen, CO

9:56 PM MDT on July 23, 2017 (GMT -0600)
Aspen-Pitkin County / Sardy Field

Weather History for KASE - June, 2013

Change the Weather History Date:

Saturday, June 29, 2013

  Actual Average Record
Temperature  
Mean Temperature 70 °F 61 °F  
Max Temperature 87 °F 79 °F 87 °F (1998)
Min Temperature 52 °F 44 °F 41 °F (1999)
Degree Days  
Heating Degree Days 0 4  
Month to date heating degree days 145 226  
Since 1 June heating degree days 145 226  
Since 1 July heating degree days 8586 8871  
Cooling Degree Days 5 0  
Month to date cooling degree days 16 0  
Year to date cooling degree days 16 0  
Since 1 June cooling degree days 16 0  
Growing Degree Days 20 (Base 50)    
Moisture  
Dew Point 39 °F    
Average Humidity 36    
Maximum Humidity 57    
Minimum Humidity 15    
Precipitation  
Precipitation T in 0.04 in 0.48 in (1987)
Month to date precipitation 0.09 1.10  
Year to date precipitation 6.77 8.04  
Sea Level Pressure  
Sea Level Pressure 29.98 in    
Wind  
Wind Speed 8 mph (ESE)    
Max Wind Speed 25 mph    
Max Gust Speed 39 mph    
Visibility 10 miles    
Events Rain , Thunderstorm    
T = Trace of Precipitation, MM = Missing Value Source: NWS Daily Summary

Daily Weather History Graph

Daily Weather History Graph

Search for Another Location

Airport or City:

Trip Planner

Search our weather history database for the weather conditions in past years. The results will help you decide how hot, cold, wet, or windy it might be!

Date:

Astronomy

Jun. 29, 2013 Rise Set
Actual Time 5:44 AM MDT 8:37 PM MDT
Civil Twilight 5:11 AM MDT 9:10 PM MDT
Nautical Twilight 4:31 AM MDT 9:50 PM MDT
Astronomical Twilight 3:44 AM MDT 10:37 PM MDT
Moon 12:11 AM MDT (6/29) 12:55 PM MDT (6/29)
Length of Visible Light 15h 58m
Length of Day
14h 53m
Waning Gibbous, 55% of the Moon is Illuminated
Jun 29
Waning Gibbous
Jun 29
Last Quarter
Jul 8
New
Jul 15
First Quarter
Jul 22
Full

Hourly Weather History & Observations

Time (MDT) Temp. Dew Point Humidity Pressure Visibility Wind Dir Wind Speed Gust Speed Precip Events Conditions
12:53 AM 66.9 °F 37.0 °F 33% 29.94 in 10.0 mi SE 12.7 mph 19.6 mph N/A   Clear
1:53 AM 66.0 °F 37.0 °F 34% 29.94 in 10.0 mi SSE 9.2 mph - N/A   Clear
2:53 AM 61.0 °F 37.0 °F 41% 29.96 in 10.0 mi SW 5.8 mph - N/A   Mostly Cloudy
3:53 AM 55.9 °F 37.0 °F 49% 29.96 in 10.0 mi SSW 8.1 mph - N/A   Clear
4:53 AM 55.9 °F 37.0 °F 49% 29.99 in 10.0 mi Calm Calm - N/A   Partly Cloudy
5:53 AM 55.9 °F 37.9 °F 51% 30.01 in 10.0 mi SSW 4.6 mph - N/A   Clear
6:53 AM 57.0 °F 39.0 °F 51% 30.01 in 10.0 mi SSW 6.9 mph - N/A   Clear
7:53 AM 64.0 °F 39.9 °F 41% 30.01 in 10.0 mi Calm Calm - N/A   Scattered Clouds
8:53 AM 66.9 °F 43.0 °F 42% 30.02 in 10.0 mi North 4.6 mph - N/A   Partly Cloudy
9:53 AM 73.0 °F 42.1 °F 33% 30.00 in 10.0 mi NNE 6.9 mph - N/A   Clear
10:53 AM 78.1 °F 39.9 °F 25% 29.95 in 10.0 mi NE 6.9 mph - N/A   Clear
11:53 AM 81.0 °F 36.0 °F 20% 29.93 in 10.0 mi NNW 11.5 mph 17.3 mph N/A   Clear
12:53 PM 81.0 °F 35.1 °F 19% 29.91 in 10.0 mi NNW 11.5 mph 21.9 mph N/A   Clear
1:53 PM 84.0 °F 34.0 °F 17% 29.87 in 10.0 mi North 13.8 mph 19.6 mph N/A   Scattered Clouds
2:53 PM 82.9 °F 30.9 °F 15% 29.88 in 10.0 mi NW 13.8 mph 19.6 mph N/A   Clear
3:53 PM 79.0 °F 32.0 °F 18% 29.90 in 10.0 mi NNE 9.2 mph 39.1 mph N/A   Scattered Clouds
4:53 PM 82.0 °F 30.0 °F 15% 29.87 in 10.0 mi Variable 6.9 mph - N/A   Mostly Cloudy
5:53 PM 73.9 °F 39.0 °F 28% 29.94 in 10.0 mi ENE 8.1 mph 16.1 mph 0.00 in   Mostly Cloudy
6:53 PM 70.0 °F 43.0 °F 38% 30.00 in 10.0 mi SE 15.0 mph 23.0 mph 0.00 in   Overcast
7:04 PM 64.4 °F 46.4 °F 52% 30.36 in 10.0 mi ESE 13.8 mph 24.2 mph N/A Rain , Thunderstorm Light Thunderstorms and Rain
7:49 PM 66.2 °F 44.6 °F 46% 30.34 in 10.0 mi SE 13.8 mph 21.9 mph 0.00 in   Scattered Clouds
7:53 PM 66.9 °F 44.1 °F 44% 29.95 in 10.0 mi SE 17.3 mph 24.2 mph 0.00 in   Scattered Clouds
8:53 PM 64.0 °F 45.0 °F 50% 29.95 in 10.0 mi SE 6.9 mph - N/A   Clear
9:53 PM 63.0 °F 43.0 °F 48% 29.95 in 10.0 mi SE 10.4 mph - N/A   Clear
10:53 PM 59.0 °F 41.0 °F 51% 29.97 in 10.0 mi Variable 3.5 mph - N/A   Clear
11:53 PM 57.0 °F 42.1 °F 57% 29.98 in 10.0 mi South 5.8 mph - N/A   Partly Cloudy